Location: Cicognara
(44.9500°N, 10.4667°E)
Time: 07:02:10
(UTC+00:00)

Meteor 1-11 - Pass Details

Date: 20 June 2021
Orbit: 842 x 885 km, 81.2° (Epoch: 28 July)

Event Time Altitude Azimuth Distance (km) Brightness Sun altitude
Exits shadow 23:19:59 44° 201° (SSW) 1,159 4.5 -21.6°
Maximum altitude 23:21:51 80° 280° (W) 864 4.2 -21.6°
Drops below altitude 10° 23:27:27 10° 9° (N) 2,472 7.8 -21.6°
Sets 23:29:53 0° 10° (N) 3,411 8.9 -21.6°
